www.pogodaiklimat.ru

Погода и климат >> Архив погоды >> Бразилия >> Санта-Катарина >> Ново-Оризонти


ПОГОДА в Ново-Оризонти

  • Прогноз погоды в Ново-Оризонти
  • Монитор погоды в Ново-Оризонти

АРХИВ ПОГОДЫ в Ново-Оризонти

Время (UTC), дата Ветер
(напр.,м/с)
 
Видим.   Явления Облачность Т
(С)
Тd
(С)
f
(%)
Тe
(С)
Тes
(С)
Комфортность P
(гПа)
Po
(гПа)
Тmin
(С)
Tmax
(С)
R
(мм)
R24
(мм)
S
(см)
13 13.08 ЮВ 3
{5}
н/о н/о +11.0 +5.1 67 +10 +10 1026.5 916.4
14 13.08 ЮВ 3
{6}
н/о н/о +12.1 +1.2 47 +11 +11 1026.4 916.7
15 13.08 Ю 3
{6}
н/о н/о +13.5 +3.8 52 +13 +13 1025.9 916.7
16 13.08 Ю 2
{6}
н/о н/о +13.5 +1.8 45 +13 +13 1025.6 916.5
17 13.08 Ю 3
{7}
н/о н/о +13.4 +0.6 42 +12 +12 1025.1 916.0
18 13.08 Ю 3
{6}
н/о н/о +13.5 -0.1 39 +13 +13 1024.6 915.6
19 13.08 Ю 3
{6}
н/о н/о +12.7 -0.8 39 +12 +12 1025.1 915.7
20 13.08 Ю 2
{6}
н/о н/о +11.3 -0.8 43 +11 +11 1026.3 916.3
21 13.08 Ю 3
{5}
н/о н/о +9.3 -2.0 45 +8 +8 1027.2 916.4
22 13.08 Ю 3
{6}
н/о н/о +7.6 +0.2 59 +5 +5 1028.2 916.6
23 13.08 Ю 3
{7}
н/о н/о +6.6 +1.5 70 +4 +4 1029.1 917.0
00 14.08 Ю 2
{6}
н/о н/о +5.2 +1.5 77 +3 +3 1030.3 917.6
01 14.08 Ю 2
{5}
н/о н/о +4.3 +1.1 80 +2 +2 1031.0 917.9
02 14.08 Ю 3
{6}
н/о н/о +3.8 +0.8 81 0 0 1031.8 918.4
03 14.08 Ю 3
{5}
н/о н/о +3.1 +0.4 82 -0 -0 1032.2 918.5
04 14.08 Ю 2
{4}
н/о н/о +2.4 0.0 84 -1 -1 1032.3 918.3
05 14.08 ЮВ 2
{5}
н/о н/о +2.0 +0.1 87 -1 -1 1032.3 918.1
06 14.08 ЮВ 2
{6}
н/о н/о +2.4 +0.7 89 -1 -1 1031.6 917.7
07 14.08 ЮВ 2
{6}
н/о н/о +1.9 +0.4 90 -2 -2 1031.6 917.5
08 14.08 ЮВ 2
{5}
н/о н/о +0.9 -0.6 90 -3 -3 1031.7 917.2
10 14.08 ЮВ 2
{5}
н/о н/о -0.1 -2.4 84 -4 -4 1032.4 917.4
11 14.08 ЮВ 2
{5}
н/о н/о +1.2 -2.4 77 -1 -1 1032.4 917.9
12 14.08 ЮВ 2
{4}
н/о н/о +3.4 -1.9 68 +1 +1 1032.0 918.4
13 14.08 ЮВ 1
{3}
н/о н/о +5.6 -2.0 58 +5 +5 1031.7 919.0
14 14.08 ЮВ 1
{3}
н/о н/о +7.7 -1.7 51 +7 +7 1030.9 919.1
15 14.08 ЮВ 2
{3}
н/о н/о +9.6 -3.2 40 +9 +9 1029.5 918.5
16 14.08 ЮВ 2
{3}
н/о н/о +11.1 -3.8 35 +11 +11 1028.3 918.0
17 14.08 ЮВ 1
{3}
н/о н/о +14.1 -1.2 35 +15 +15 1026.1 917.1
18 14.08 ЮВ 1
{3}
н/о н/о +14.4 -1.8 33 +15 +15 1025.1 916.3
19 14.08 ЮВ 1
{3}
н/о н/о +14.7 -3.6 28 +15 +15 1024.6 916.0
20 14.08 Ю 1
{2}
н/о н/о +13.7 -1.8 34 +14 +14 1025.0 916.0
21 14.08 Ю 1
{2}
н/о н/о +10.6 -1.3 43 +11 +11 1026.5 916.2
22 14.08 ЮВ 1
{2}
н/о н/о +9.0 -1.5 48 +10 +10 1027.3 916.3
23 14.08 В 1
{3}
н/о н/о +8.7 -0.9 51 +8 +8 1028.1 916.9
00 15.08 В 2
{5}
н/о н/о +9.0 -1.0 50 +8 +8 1027.5 916.5
01 15.08 В 1
{5}
н/о н/о +7.7 +0.4 60 +7 +7 1028.1 916.6
02 15.08 СВ 3
{5}
н/о н/о +8.2 -0.1 56 +6 +6 1027.8 916.5
03 15.08 СВ 3
{6}
н/о н/о +7.4 -1.6 53 +5 +5 1027.8 916.2
04 15.08 СВ 3
{7}
н/о н/о +6.5 -2.3 53 +4 +4 1027.9 915.9
05 15.08 СВ 3
{7}
н/о н/о +5.5 -0.6 65 +3 +3 1028.3 915.9
06 15.08 СВ 3
{6}
н/о н/о +4.7 +0.6 75 +2 +2 1027.8 915.2
07 15.08 СВ 2
{5}
н/о н/о +4.7 +0.8 76 +2 +2 1027.4 914.8
09 15.08 СВ 2
{5}
н/о н/о +5.7 +0.8 71 +3 +3 1027.3 915.1
10 15.08 СВ 3
{6}
н/о н/о +6.5 +0.9 67 +4 +4 1027.5 915.6
11 15.08 С 3
{6}
н/о н/о +7.8 +1.5 64 +5 +5 1027.4 916.0
12 15.08 С 3
{6}
н/о н/о +10.2 +1.6 55 +8 +8 1027.0 916.5
13 15.08 СВ 2
{6}
н/о н/о +13.2 +2.7 49 +13 +13 1026.3 917.0
15 15.08 С 3
{7}
н/о н/о +16.5 +2.8 40 +16 +16 1024.4 916.5
16 15.08 С 2
{5}
н/о н/о +19.5 +4.1 36 +21 +21 комфорт 1022.8 916.1
17 15.08 С 2
{5}
н/о н/о +20.7 +3.9 33 +22 +22 комфорт 1021.4 915.2
18 15.08 С 2
{5}
н/о н/о +21.0 +5.2 36 +22 +22 комфорт 1020.7 914.7
19 15.08 С 2
{4}
н/о н/о +20.6 +5.5 37 +22 +22 комфорт 1020.4 914.3
20 15.08
{4}
н/о н/о +20.2 +6.4 41 1020.4 914.2
21 15.08
{3}
н/о н/о +18.9 +6.9 46 1020.9 914.2
22 15.08 С 2
{3}
н/о н/о +18.6 +7.2 47 +20 +20 1021.3 914.4
23 15.08 СВ 2
{3}
н/о н/о +18.6 +7.1 47 +20 +20 1021.3 914.4
00 16.08 СВ 2
{4}
н/о н/о +17.9 +7.3 50 +19 +19 1021.6 914.4
01 16.08 СВ 2
{5}
н/о н/о +16.8 +8.6 58 +17 +17 1021.9 914.3
02 16.08 С 3
{5}
н/о н/о +15.9 +9.1 64 +16 +16 1022.3 914.4
03 16.08
{7}
н/о н/о +16.0 +9.3 64 1022.4 914.5
04 16.08
{6}
н/о н/о +15.7 +9.3 66 1022.3 914.3
05 16.08 С 4
{7}
н/о н/о +15.8 +9.8 67 +15 +15 1021.9 914.0
06 16.08 С 3
{6}
н/о н/о +15.4 +9.9 70 +15 +15 1021.8 913.7
07 16.08 С 3
{6}
н/о н/о +15.6 +10.1 70 +15 +15 1021.4 913.5
08 16.08 С 4
{6}
н/о н/о +15.3 +10.0 71 +14 +14 1021.6 913.5
09 16.08 С 3
{5}
н/о н/о +15.4 +10.1 71 +15 +15 1021.8 913.7
10 16.08
{5}
н/о н/о +15.4 +10.2 71 1022.3 914.2
11 16.08
{5}
н/о н/о +16.0 +10.5 70 1022.2 914.3
12 16.08 С 3
{5}
н/о н/о +16.8 +10.8 68 +17 +17 1022.2 914.6
13 16.08 С 3
{5}
н/о н/о +18.6 +11.5 63 +19 +19 1021.7 914.8
14 16.08 С 3
{5}
н/о н/о +20.6 +12.2 59 +23 +23 комфорт 1020.8 914.7
15 16.08 С 3
{5}
н/о н/о +21.6 +11.4 52 +24 +24 комфорт 1019.6 913.9
16 16.08 С 3
{5}
н/о н/о +22.5 +12.0 51 +25 +25 комфорт 1018.3 913.1
17 16.08 С 3
{6}
н/о н/о +23.0 +11.4 48 +25 +25 комфорт 1017.0 912.1
18 16.08 С 3
{6}
н/о н/о +23.5 +12.2 49 +25 +25 комфорт 1016.2 911.5
19 16.08 С 2
{5}
н/о н/о +23.5 +10.3 43 +25 +25 комфорт 1015.5 910.9
20 16.08 С 2
{4}
н/о н/о +22.9 +10.3 45 +25 +25 комфорт 1015.9 911.0
21 16.08 С 2
{4}
н/о н/о +21.5 +10.8 51 +23 +23 комфорт 1016.4 911.0
22 16.08 С 2
{3}
н/о н/о +21.1 +9.9 49 +23 +23 комфорт 1016.4 910.9
23 16.08 СЗ 2
{4}
н/о н/о +20.6 +9.8 50 +23 +23 комфорт 1016.5 910.8
00 17.08 С 2
{4}
н/о н/о +20.3 +9.3 49 +22 +22 комфорт 1016.6 910.8
01 17.08 С 2
{4}
н/о н/о +19.3 +8.8 51 +21 +21 комфорт 1017.0 910.8
02 17.08 С 2
{5}
н/о н/о +18.6 +8.2 51 +20 +20 1017.1 910.7
03 17.08 С 2
{6}
н/о н/о +17.7 +7.2 50 +18 +18 1016.8 910.1
04 17.08 С 2
{5}
н/о н/о +16.9 +7.1 52 +17 +17 1017.2 910.2
05 17.08 С 2
{5}
н/о н/о +16.3 +7.1 54 +16 +16 1016.9 909.7
06 17.08 СВ 1
{5}
н/о н/о +15.2 +7.0 58 +16 +16 1016.7 909.1
07 17.08 СВ 2
{4}
н/о н/о +15.3 +6.6 56 +16 +16 1015.8 908.3
08 17.08 СВ 2
{4}
н/о н/о +15.1 +6.1 55 +15 +15 1015.6 908.1
09 17.08 С 2
{5}
н/о н/о +14.9 +5.7 54 +15 +15 1016.1 908.5
10 17.08
{5}
н/о н/о +14.5 +5.7 55 1016.6 908.8
11 17.08 С 3
{5}
н/о н/о +15.3 +6.1 54 +15 +15 1016.5 909.0
12 17.08 С 3
{5}
н/о н/о +17.2 +6.8 50 +17 +17 1015.8 909.0
13 17.08 С 3
{6}
н/о н/о +19.0 +7.7 48 +20 +20 1015.3 909.2
14 17.08 С 4
{8}
н/о н/о +20.4 +8.4 46 +22 +22 комфорт 1014.6 909.0
15 17.08 С 4
{7}
н/о н/о +21.8 +8.3 42 +23 +23 комфорт 1013.4 908.4
16 17.08 С 4
{7}
н/о н/о +23.2 +8.7 40 +25 +25 комфорт 1011.5 907.2
17 17.08 СЗ 4
{7}
н/о н/о +23.6 +8.6 38 +24 +24 комфорт 1010.1 906.1
18 17.08 С 3
{7}
н/о н/о +24.4 +8.4 36 +25 +25 комфорт 1009.2 905.5
19 17.08 С 3
{6}
н/о н/о +24.2 +7.8 35 +25 +25 комфорт 1008.8 905.1
20 17.08 С 3
{6}
н/о н/о +23.3 +8.8 40 +25 +25 комфорт 1009.2 905.2
21 17.08 С 3
{5}
н/о н/о +22.3 +8.8 42 +24 +24 комфорт 1009.7 905.3
23 17.08 С 3
{5}
н/о н/о +21.8 +8.8 43 +23 +23 комфорт 1010.4 905.7
00 18.08 С 2
{5}
н/о н/о +21.5 +8.5 43 +23 +23 комфорт 1011.0 906.2
01 18.08 С 3
{4}
н/о н/о +20.4 +8.8 47 +22 +22 комфорт 1011.8 906.5
02 18.08 С 3
{4}
н/о н/о +20.7 +8.6 46 +23 +23 комфорт 1012.2 907.0
03 18.08 С 3
{4}
н/о н/о +20.9 +8.4 45 +23 +23 комфорт 1012.0 906.9
04 18.08 С 3
{5}
н/о н/о +19.9 +8.8 49 +21 +21 комфорт 1012.1 906.6
05 18.08 С 3
{5}
н/о н/о +19.8 +8.6 48 +21 +21 комфорт 1011.8 906.3
06 18.08 С 3
{5}
н/о н/о +20.0 +8.6 48 +21 +21 комфорт 1011.6 906.2
07 18.08 С 4
{5}
н/о н/о +19.6 +8.7 49 +21 +21 комфорт 1011.2 905.7
08 18.08 С 4
{6}
н/о н/о +19.4 +8.7 50 +20 +20 1011.0 905.5
10 18.08 С 4
{6}
н/о н/о +19.0 +9.1 53 +20 +20 1011.1 905.4
11 18.08 С 4
{6}
н/о н/о +19.0 +9.3 53 +20 +20 1011.3 905.6
12 18.08 СЗ 4
{7}
н/о н/о +17.5 +10.6 64 +17 +17 1012.4 906.1
13 18.08 З 2
{7}
н/о н/о +19.5 +10.0 54 +21 +21 комфорт 1013.3 907.6
14 18.08 СВ 1
{4}
н/о н/о +20.1 +10.7 55 +23 +23 комфорт 1013.0 907.5
15 18.08 С 2
{3}
н/о н/о +21.3 +12.2 56 +23 +23 комфорт 1012.0 907.0
16 18.08 СЗ 3
{5}
н/о н/о +22.6 +12.2 52 +25 +25 комфорт 1010.8 906.4
17 18.08 СЗ 2
{5}
н/о н/о +22.6 +13.3 56 +26 +26 жарко 1010.5 906.1
18 18.08 З 2
{4}
н/о н/о +23.5 +14.1 56 +26 +26 жарко 1009.8 905.8
19 18.08 З 2
{4}
н/о н/о +23.1 +13.9 56 +27 +27 душно 1009.9 905.7
20 18.08 Ю 1
{3}
н/о н/о +20.2 +15.3 73 +24 +24 комфорт 1011.6 906.3
21 18.08 Ю 2
{4}
н/о н/о +18.6 +13.1 70 +20 +20 1013.0 907.0
22 18.08 Ю 2
{4}
н/о н/о +17.8 +13.9 78 +18 +18 1013.8 907.4
23 18.08 Ю 2
{4}
н/о н/о +16.8 +15.3 91 +17 +17 1014.6 907.8
00 19.08 Ю 2
{4}
н/о н/о +16.5 +15.5 94 +17 +17 1014.6 907.7
01 19.08 ЮВ 2
{4}
н/о н/о +15.2 +14.6 96 +15 +15 1015.8 908.3
02 19.08 Ю 2
{4}
н/о н/о +13.7 +13.3 97 +13 +13 1017.5 909.3
03 19.08 ЮВ 2
{4}
н/о н/о +13.7 +13.4 98 +13 +13 1017.5 909.3 0.4
04 19.08 ЮВ 2
{4}
н/о н/о +13.2 +12.9 98 +13 +13 1017.7 909.3
05 19.08 ЮВ 2
{4}
н/о н/о +12.3 +12.1 99 +12 +12 1018.0 909.2
06 19.08 Ю 1
{4}
н/о н/о +11.4 +11.2 99 +11 +11 1018.7 909.5
07 19.08 ЮВ 2
{3}
н/о н/о +10.1 +9.9 99 +9 +9 1018.3 908.7
08 19.08 ЮВ 2
{3}
н/о н/о +9.5 +9.3 99 +8 +8 1018.3 908.5
09 19.08 ЮВ 1
{4}
н/о н/о +8.9 +8.7 99 +8 +8 1018.9 908.8
10 19.08 Ю 2
{4}
н/о н/о +8.4 +8.3 99 +6 +6 1019.7 909.3
11 19.08 Ю 2
{4}
н/о н/о +8.3 +8.1 99 +7 +7 1020.5 910.0
12 19.08 Ю 2
{4}
н/о н/о +8.4 +8.2 99 +6 +6 1020.7 910.2
13 19.08 ЮВ 2
{4}
н/о н/о +9.3 +8.6 95 +8 +8 1020.9 910.7
14 19.08 ЮВ 1
{3}
н/о н/о +10.6 +8.3 86 +10 +10 1020.4 910.8
15 19.08 Ю 2
{3}
н/о н/о +11.2 +8.4 83 +10 +10 1020.1 910.7
16 19.08 ЮВ 1
{3}
н/о н/о +12.1 +8.9 81 +12 +12 1019.0 910.1
17 19.08 ЮВ 1
{3}
н/о н/о +13.4 +9.7 78 +14 +14 1018.0 909.6
18 19.08 ЮВ 1
{3}
н/о н/о +14.7 +10.5 76 +15 +15 1017.1 909.3
19 19.08 ЮВ 1
{3}
н/о н/о +14.6 +10.8 78 +15 +15 1017.1 909.3
20 19.08 ЮВ 1
{3}
н/о н/о +14.1 +10.7 80 +14 +14 1017.9 909.8
21 19.08 Ю 2
{3}
н/о н/о +13.1 +10.5 84 +13 +13 1018.5 910.0
22 19.08 ЮВ 1
{3}
н/о н/о +11.9 +10.2 89 +12 +12 1018.9 909.9
23 19.08 ЮВ 1
{3}
н/о н/о +12.0 +10.5 91 +12 +12 1019.2 910.2
00 20.08 ЮВ 1
{2}
н/о н/о +11.9 +10.6 92 +12 +12 1019.7 910.6
01 20.08 В 2
{3}
н/о н/о +11.7 +10.2 91 +11 +11 1020.3 911.1
02 20.08 В 1
{3}
н/о н/о +11.4 +9.7 89 +11 +11 1020.9 911.5
03 20.08 ЮВ 1
{2}
н/о н/о +10.9 +9.1 89 +11 +11 1021.2 911.6
04 20.08 В 2
{3}
н/о н/о +10.3 +8.6 89 +9 +9 1020.8 911.0
05 20.08 В 1
{3}
н/о н/о +10.2 +8.5 89 +10 +10 1020.8 911.0
06 20.08 ЮВ 1
{2}
н/о н/о +10.0 +8.6 91 +9 +9 1021.1 911.2
07 20.08 ЮВ 1
{3}
н/о н/о +9.7 +8.5 92 +10 +10 1021.7 911.6
08 20.08 В 1
{2}
н/о н/о +9.4 +8.4 93 +9 +9 1021.8 911.6
09 20.08 В 1
{2}
н/о н/о +8.8 +7.9 94 +8 +8 1022.2 911.7
10 20.08 В 1
{2}
н/о н/о +8.7 +8.1 96 +8 +8 1022.6 912.0
11 20.08 Ю 1
{1}
н/о н/о +9.6 +8.9 95 +10 +10 1023.3 913.0

 

Местоположение метеостанции Ново-Оризонти (Санта-Катарина, Бразилия): широта -26.40 долгота -52.85 высота над уровнем моря 962 м.

В архиве по умолчанию представлена погода в Ново-Оризонти за последнюю неделю. Архивные данные за месяц целиком и за предыдущие месяцы, начиная с января 2011 года, Вы можете получить, выбрав интересующий диапазон дат из раскрывающегося списка и нажав кнопку "Ввод!".


*Определитесь, кто Вы:
робот инопланетянин человек

Внимание! Время в таблицах - всемирное. Для получения местного времени необходимо прибавить поправку, которая равна -3 ч.

Смотрите также архив погоды в соседних городах и на ближайших метеорологических станциях:

Погода в Клевеландии (Парана, Бразилия) (50 км)
Погода в Шаншере (Санта-Катарина, Бразилия) (74 км)
Погода в Сан-Мигель-ду-Осте (Санта-Катарина, Бразилия) (77 км)
Погода в Дионисио Серкейра (Парана, Бразилия) (79 км)
Погода в Дойс-Визиньюсе (Парана, Бразилия) (82 км)
Погода в Ираи (Санта-Катарина, Бразилия) (95 км)
Погода в Планарту (Парана, Бразилия) (118 км)
Погода в Фредерику-Вестфалене (Риу-Гранди-ду-Сул, Бразилия) (125 км)
Погода в Женерал-Карнейру (Парана, Бразилия) (149 км)
Погода в Эрешине (Риу-Гранди-ду-Сул, Бразилия) (151 км)

Пояснения к столбцам:

Ветер - указаны скорость ветра в м/с - средняя за 10 мин, порывы в срок и между сроками (в фигурных скобках) и направление, откуда дует ветер: С - северный, СВ - северо-восточный, В - восточный, ЮВ - юго-восточный, Ю - южный, ЮЗ - юго-западный, З - западный, СЗ - северо-западный.
Видимость - горизонтальная дальность видимости в метрах или километрах. При видимости от 1 до 10 км при отсутствии осадков обычно наблюдается дымка, при ухудшении видимости до 1 км и менее - туман. В сухую погоду видимость может ухудшаться дымом, пылью или мглою.
Явления - указаны атмосферные явления, наблюдавшиеся в срок или в последний час перед сроком; фигурными скобками обозначены явления, наблюдавшиеся между сроками (за 1-3 часа до срока); квадратными скобками обозначены град или гололедные отложения с указанием их диаметра в мм.
Облачность - указаны через наклонную черту общая и нижняя облачность в баллах и высота нижней границы облаков в метрах; квадратными скобками обозначены формы облаков: Ci - перистые, Cs - перисто-слоистые, Cc - перисто-кучевые, Ac - высококучевые, As - высокослоистые, Sc - слоисто-кучевые, Ns - слоисто-дождевые, Cu - кучевые, Cb - кучево-дождевые. Подробнее классификацию облаков см. в Атласе облаков (PDF).
T - Температура воздуха - температура, измеренная на высоте 2 м над землей.
Td - Температура точки росы - температура, при понижении до которой содержащийся в воздухе водяной пар достигнет насыщения.
f - Относительная влажность воздуха - влажноcть воздуха, измеренная на высоте 2 м над землей.
Te - Эффективная температура - температура, которую ощущает одетый по сезону человек в тени. Характеристика душности погоды. При расчете учитывается влияние влажности воздуха и скорости ветра на теплоощущения человека.
Tes - Эффективная температура на солнце - температура, которую ощущает человек, с поправкой на солнечный нагрев. Характеристика знойности погоды. Зависит от высоты солнца над горизонтом, облачности и скорости ветра. Ночью, в пасмурную погоду, а также при ветре 12 м/с и более поправка равна нулю.
P - Атмосферное давление - приведенное к уровню моря атмосферное давление.
Po - Атмосферное давление - измеренное на уровне метеостанции атмосферное давление.
Tmin - Минимальная температура - минимум температуры воздуха на высоте 2 м над землей.
Tmax - Максимальная температура - максимум температуры воздуха на высоте 2 м над землей.
R - Количество осадков - Количество выпавших осадков за период времени, мм. При наведении курсора мыши на число - период времени, за который выпало указанное количество осадков.
R24 - Количество осадков - Количество выпавших осадков за 24 часа, мм.
S - Снежный покров - Высота снежного покрова, см. При наведении курсора мыши на число - состояние снежного покрова и степень покрытия местности в баллах.